Hourly Data Report for May 04, 2012

All times are specified in Local Standard Time (LST). Add 1 hour to adjust for Daylight Saving Time where and when it is observed.

GANDER INTL A
NEWFOUNDLAND

48°56'13.000" N
54°34'05.000" W
151.20 m
8401703
71803
YQX

Download Data

Hourly Data (May 2012)
Hourly Data Report for May 4, 2012
Temp Definition
°C
Dew Point Temp Definition
°C
Rel Hum Definition
%
Wind Dir Definition
10's deg

Wind Spd Definition
km/h
Visibility Definition
km
Stn Press Definition
kPa
Hmdx Definition


Wind Chill Definition


Weather Definition


TIME
00:30 1.4 0.5 94 4 13 10.0 100.12     LegendNANA
01:30 1.1 0.2 94 6 17 10.0 100.11     LegendNANA
02:30 1.0 0.1 94 4 13 10.0 100.10     Cloudy
03:30 1.1 0.7 97 6 17 0.2 100.11     Drizzle,Fog
04:30 1.7 1.3 97 5 12 0.4 100.13     Drizzle,Fog
05:30 2.1 1.8 98 4 18 4.0 100.15     Drizzle,Fog
06:30 2.7 2.4 98 3 22 1.6 100.23     Drizzle,Fog
07:30 4.6 2.6 87 5 20 10.0 100.26     LegendNANA
08:30 6.7 1.8 71 5 30 10.0 100.25     Mostly Cloudy
09:30 8.9 1.1 58 4 30 10.0 100.22     LegendNANA
10:30 9.8 1.5 56 7 31 10.0 100.22     LegendNANA
11:30 8.5 0.7 58 4 36 10.0 100.18     Mostly Cloudy
12:30 7.1 0.8 64 3 38 10.0 100.15     LegendNANA
13:30 4.1 3.1 93 3 35 10.0 100.14     Drizzle,Fog
14:30 3.5 2.8 95 3 31 4.0 100.09     Drizzle,Fog
15:30 3.3 2.7 96 2 26 2.0 100.08     Rain,Fog
16:30 2.7 2.3 97 36 20 0.4 100.12     Drizzle,Fog
17:30 3.1 2.7 97 36 13 0.2 100.09     Drizzle,Fog
18:30 3.2 2.9 98 1 19 0.0 100.11     Drizzle,Fog
19:30 2.8 2.5 98 1 16 0.0 100.10     Drizzle,Fog
20:30 2.7 2.4 98 1 14 0.0 100.10     Drizzle,Fog
21:30 2.7 2.4 98 0 18 0.2 100.07     Drizzle,Fog
22:30 2.6 2.3 98 36 13 0.2 100.07     Drizzle,Fog
23:30 2.5 2.2 98 36 12 0.2 100.03     Drizzle,Fog

Notes on Data Quality.

Legend

  • E = Estimated
  • M = Missing
  • NA = Not Available
Date modified: